Regional Weather Roundup
Issued by NWS Bismarck, ND

Home | Current Version | Previous Version | Text Only | Print | Product List | Glossary On
Versions: 1 2 3 4 5 6 7 8 9 10 11 12 13 14 15 16 17 18 19 20 21 22 23 24 25 26 27 28 29 30 31 32 33 34 35 36 37 38 39 40 41 42 43 44 45 46 47 48 49 50
000
ASUS43 KBIS 120510
RWRBIS

NWR BROADCAST TEXT
NATIONAL WEATHER SERVICE BISMARCK ND
1100 PM CST THU FEB 11 2016

NOTE: "FAIR" INDICATES FEW OR NO CLOUDS BELOW 12,000 FEET WITH NO
SIGNIFICANT WEATHER AND/OR OBSTRUCTIONS TO VISIBILITY.


CITY           SKY/WX    TMP DP  RH WIND       PRES   REMARKS
WILLISTON      CLOUDY    21  16  81 N7        30.33R WCI  12
MINOT          CLOUDY    19  10  68 N9        30.30R WCI   8
MINOT AFB      CLOUDY    15   9  79 N9        30.30R WCI   3
BISMARCK       CLOUDY    19  12  74 N3        30.30R
DICKINSON      CLOUDY    21  17  84 N6        30.23R WCI  13
GARRISON         N/A     15  12  88 W7        30.28R WCI   5
HETTINGER ARPT CLOUDY    23  20  88 NW3       30.24S FOG
JAMESTOWN      PTCLDY     6   2  83 NW7       30.27R WCI  -6
BEACH          CLOUDY    23  23 100 N5        30.29R WCI  17
CARRINGTON     FAIR       7   7 100 NW6       30.30R WCI  -3
HAZEN          CLOUDY    14  10  85 CALM      30.32R
LINTON         CLOUDY    18  18 100 N9        30.30R WCI   6
MANDAN         CLOUDY    14  12  92 NW5       30.29R WCI   6
OAKES          CLOUDY    12   9  85 N7        30.28S WCI   2
RUGBY          FAIR       9   5  85 N8        30.30R WCI  -4
STANLEY        FLURRIES  18  16  93 NW6       30.30R WCI   9
TIOGA          FLURRIES  16  16 100 NW9       30.34R WCI   4
WATFORD CITY   CLOUDY    19  16  86 NW5       30.32R WCI  13
$$

CITY           SKY/WX    TMP DP  RH WIND       PRES   REMARKS
GRAND FORKS    PTCLDY     7   1  76 NW7       30.31S WCI  -5
GRAND FORKS AF PTCLDY     8   2  78 N8        30.31S WCI  -5
DEVILS LAKE    CLOUDY     7   3  84 NW7       30.30R WCI  -5
FARGO          CLOUDY    13   7  77 N10       30.29S WCI   0
CAVALIER       FAIR       7   0  72 NW13      30.32S WCI  -9
GRAFTON        FAIR       7   1  78 NW10      30.34R WCI  -8
GWINNER        CLOUDY    14  10  85 NW8       30.29R WCI   3
LANGDON        FAIR      -2  -6  84 NW6       30.27R WCI -14
ROLLA          FLURRIES   3   0  85 N15       30.28R WCI -15
WALHALLA       FAIR       5   0  78 NW12      30.33S WCI -11
$$

CITY           SKY/WX    TMP DP  RH WIND       PRES   REMARKS
ABERDEEN       PTCLDY    13   9  84 N7        30.28S WCI   3
MOBRIDGE       CLOUDY    21  16  81 N5        30.26R WCI  15
BUFFALO          N/A     30  24  78 N9        30.16R
RAPID CITY     CLOUDY    31  28  89 N6        30.24R
GLASGOW        CLOUDY    30  26  85 N5        30.28R
SIDNEY         CLOUDY    23  16  74 NE6       30.32R WCI  16
WOLF POINT     CLOUDY    28  20  71 E6        30.32R
GLENDIVE       CLOUDY    25  21  86 E3        30.30S
MILES CITY     CLOUDY    29  25  85 S3        30.27R
BAKER          CLOUDY    27  21  78 NW9       30.24S WCI  18
$$

CITY           SKY/WX    TMP DP  RH WIND       PRES   REMARKS
BILLINGS       MOCLDY    44  25  47 CALM      30.25R
GREAT FALLS    CLOUDY    33  28  81 E5        30.26S
REGINA         CLOUDY     9   3  78 N8        30.40R WCI  -4
ESTEVAN        PTCLDY    10   5  79 N9        30.34R WCI  -2
$$




USA.gov is the U.S. government's official web portal to all federal, state and local government web resources and services.